Location: Navarre
(52.9016°N, 113.4144°W)
Time: 08:03:52
(UTC+00:00)

Envisat - Pass Details

Date: 02 December 2021
Orbit: 764 x 766 km, 98.2° (Epoch: 17 January)

Event Time Altitude Azimuth Distance (km) Brightness Sun altitude
Rises 13:24:19 0° 11° (NNE) 3,248 6.2 -17.2°
Reaches altitude 10° 13:26:41 10° 7° (N) 2,317 5.4 -16.9°
Maximum altitude 13:31:37 52° 292° (WNW) 950 3.1 -16.2°
Drops below altitude 10° 13:36:32 10° 217° (SW) 2,300 5.3 -15.5°
Sets 13:38:52 0° 213° (SSW) 3,222 6.1 -15.1°
